• In Uzbekistan
  • List of Countries
  • For 7 days
  • Water Temperature
  • Satellite Maps
  • Weather Map
  • Weather Widgets
  • user-avatar
    Login

    Hourly Weather Wŏnsan

    Today, 18 November, Sunday

    Time Temperature Precipitation Wind Pressure Humidity
    00:00 +2°C° 0 mm 3 mps 765 mmHg 47%
    01:00 +1°C° 0 mm 4 mps 765 mmHg 45%
    02:00 0°C° 0 mm 4 mps 765 mmHg 42%
    03:00 +1°C° 0 mm 4 mps 765 mmHg 42%
    04:00 +1°C° 0 mm 4 mps 765 mmHg 42%
    05:00 +1°C° 0 mm 4 mps 765 mmHg 42%
    06:00 +3°C° 0 mm 4 mps 765 mmHg 43%
    07:00 +3°C° 0 mm 4 mps 765 mmHg 45%
    08:00 +4°C° 0 mm 4 mps 765 mmHg 46%
    09:00 +5°C° 0 mm 4 mps 764 mmHg 43%
    10:00 +7°C° 0 mm 4 mps 764 mmHg 39%
    11:00 +8°C° 0 mm 4 mps 764 mmHg 36%
    12:00 +8°C° 0 mm 4 mps 763 mmHg 37%
    13:00 +8°C° 0 mm 5 mps 763 mmHg 37%
    14:00 +8°C° 0 mm 5 mps 763 mmHg 38%
    15:00 +7°C° 0 mm 5 mps 763 mmHg 45%
    16:00 +6°C° 0 mm 5 mps 763 mmHg 51%
    17:00 +3°C° 0 mm 5 mps 763 mmHg 58%
    18:00 +4°C° 0 mm 4 mps 763 mmHg 61%
    19:00 +4°C° 0 mm 4 mps 763 mmHg 63%
    20:00 +4°C° 0 mm 4 mps 763 mmHg 66%
    21:00 +3°C° 0 mm 4 mps 764 mmHg 68%
    22:00 +3°C° 0 mm 4 mps 764 mmHg 70%
    23:00 +3°C° 0 mm 4 mps 764 mmHg 72%

    Tomorrow, 19 November, Monday

    Time Temperature Precipitation Wind Pressure Humidity
    00:00 +3°C° 0 mm 4 mps 764 mmHg 73%
    01:00 +3°C° 0 mm 3 mps 764 mmHg 74%
    02:00 +2°C° 0 mm 3 mps 764 mmHg 74%
    03:00 +2°C° 0 mm 3 mps 764 mmHg 75%
    04:00 +2°C° 0 mm 3 mps 764 mmHg 75%
    05:00 +2°C° 0 mm 3 mps 764 mmHg 75%
    06:00 +3°C° 0 mm 3 mps 764 mmHg 70%
    07:00 +4°C° 0 mm 3 mps 765 mmHg 66%
    08:00 +5°C° 0 mm 3 mps 765 mmHg 61%
    09:00 +7°C° 0 mm 3 mps 765 mmHg 51%
    10:00 +7°C° 0 mm 4 mps 765 mmHg 41%
    11:00 +8°C° 0 mm 4 mps 765 mmHg 31%
    12:00 +8°C° 0 mm 4 mps 765 mmHg 32%
    13:00 +8°C° 0 mm 5 mps 764 mmHg 33%
    14:00 +8°C° 0 mm 5 mps 764 mmHg 33%
    15:00 +6°C° 0 mm 5 mps 765 mmHg 39%
    16:00 +5°C° 0 mm 5 mps 765 mmHg 44%
    17:00 +2°C° 0 mm 5 mps 765 mmHg 50%
    18:00 +1°C° 0 mm 5 mps 765 mmHg 51%
    19:00 +1°C° 0 mm 5 mps 766 mmHg 53%
    20:00 0°C° 0 mm 4 mps 766 mmHg 54%
    21:00 0°C° 0 mm 4 mps 766 mmHg 54%
    22:00 0°C° 0 mm 4 mps 767 mmHg 54%
    23:00 0°C° 0 mm 4 mps 767 mmHg 55%

    Day after tomorrow, 20 November, Tuesday

    Time Temperature Precipitation Wind Pressure Humidity
    00:00 0°C° 0 mm 4 mps 767 mmHg 54%
    01:00 0°C° 0 mm 4 mps 767 mmHg 53%
    02:00 0°C° 0 mm 4 mps 767 mmHg 53%
    03:00 +1°C° 0 mm 3 mps 767 mmHg 52%
    04:00 +1°C° 0 mm 3 mps 767 mmHg 50%
    05:00 +1°C° 0 mm 3 mps 767 mmHg 49%
    06:00 +2°C° 0 mm 3 mps 767 mmHg 46%
    07:00 +3°C° 0 mm 3 mps 767 mmHg 43%
    08:00 +4°C° 0 mm 3 mps 768 mmHg 40%
    09:00 +5°C° 0 mm 3 mps 767 mmHg 42%
    10:00 +8°C° 0 mm 3 mps 767 mmHg 43%
    11:00 +10°C° 0 mm 4 mps 766 mmHg 45%
    12:00 +9°C° 0 mm 5 mps 766 mmHg 49%
    13:00 +9°C° 0 mm 6 mps 765 mmHg 53%
    14:00 +9°C° 0 mm 7 mps 765 mmHg 57%
    15:00 +8°C° 0.1 mm 6 mps 765 mmHg 65%
    16:00 +7°C° 0.1 mm 6 mps 765 mmHg 73%
    17:00 +5°C° 0.1 mm 6 mps 765 mmHg 81%
    18:00 +5°C° 0.1 mm 6 mps 765 mmHg 82%
    19:00 +7°C° 0.1 mm 6 mps 765 mmHg 82%
    20:00 +7°C° 0.1 mm 6 mps 765 mmHg 83%
    21:00 +5°C° 0 mm 6 mps 765 mmHg 85%
    22:00 +5°C° 0 mm 6 mps 765 mmHg 86%
    23:00 +6°C° 0 mm 5 mps 765 mmHg 88%

    21 November, Wednesday

    Time Temperature Precipitation Wind Pressure Humidity
    00:00 +5°C° 0 mm 5 mps 765 mmHg 87%
    01:00 +4°C° 0 mm 4 mps 765 mmHg 86%
    02:00 +4°C° 0 mm 4 mps 766 mmHg 86%
    03:00 +3°C° 0 mm 4 mps 766 mmHg 85%
    04:00 +3°C° 0 mm 3 mps 766 mmHg 84%
    05:00 +3°C° 0 mm 3 mps 766 mmHg 84%
    06:00 +3°C° 0 mm 3 mps 766 mmHg 80%
    07:00 +3°C° 0 mm 3 mps 766 mmHg 76%
    08:00 +4°C° 0 mm 2 mps 766 mmHg 73%
    09:00 +5°C° 0 mm 2 mps 766 mmHg 62%
    10:00 +6°C° 0 mm 2 mps 766 mmHg 52%
    11:00 +7°C° 0 mm 2 mps 766 mmHg 42%
    12:00 +7°C° 0 mm 2 mps 766 mmHg 40%
    13:00 +7°C° 0 mm 2 mps 765 mmHg 39%
    14:00 +7°C° 0 mm 2 mps 765 mmHg 38%
    15:00 +4°C° 0 mm 3 mps 765 mmHg 43%
    16:00 +3°C° 0 mm 3 mps 765 mmHg 49%
    17:00 +2°C° 0 mm 3 mps 765 mmHg 54%
    18:00 0°C° 0 mm 4 mps 765 mmHg 56%
    19:00 0°C° 0 mm 4 mps 766 mmHg 58%
    20:00 -1°C° 0 mm 4 mps 766 mmHg 60%
    21:00 -1°C° 0 mm 5 mps 766 mmHg 57%
    22:00 -1°C° 0 mm 5 mps 766 mmHg 54%
    23:00 -2°C° 0 mm 5 mps 766 mmHg 51%

    22 November, Thursday

    Time Temperature Precipitation Wind Pressure Humidity
    00:00 -2°C° 0 mm 5 mps 766 mmHg 47%
    01:00 -2°C° 0 mm 5 mps 766 mmHg 43%
    02:00 -2°C° 0 mm 5 mps 766 mmHg 38%
    03:00 -2°C° 0 mm 5 mps 766 mmHg 38%
    04:00 -2°C° 0 mm 4 mps 766 mmHg 38%
    05:00 -2°C° 0 mm 4 mps 766 mmHg 38%
    06:00 -1°C° 0 mm 4 mps 766 mmHg 40%
    07:00 0°C° 0 mm 4 mps 765 mmHg 42%
    08:00 +1°C° 0 mm 4 mps 765 mmHg 44%
    09:00 +2°C° 0 mm 6 mps 765 mmHg 40%
    10:00 +3°C° 0 mm 7 mps 765 mmHg 37%
    11:00 +3°C° 0 mm 9 mps 764 mmHg 34%
    12:00 +2°C° 0 mm 9 mps 764 mmHg 32%
    13:00 +2°C° 0 mm 8 mps 764 mmHg 30%
    14:00 +2°C° 0 mm 8 mps 763 mmHg 28%
    15:00 0°C° 0 mm 7 mps 764 mmHg 32%
    16:00 -1°C° 0 mm 6 mps 765 mmHg 36%
    17:00 -2°C° 0 mm 5 mps 765 mmHg 40%
    18:00 -2°C° 0 mm 5 mps 765 mmHg 42%
    19:00 -3°C° 0 mm 4 mps 766 mmHg 44%
    20:00 -3°C° 0 mm 4 mps 766 mmHg 46%
    21:00 -3°C° 0 mm 4 mps 766 mmHg 46%
    22:00 -4°C° 0 mm 4 mps 767 mmHg 45%
    23:00 -4°C° 0 mm 4 mps 767 mmHg 45%

    23 November, Friday

    Time Temperature Precipitation Wind Pressure Humidity
    00:00 -4°C° 0 mm 4 mps 767 mmHg 43%
    01:00 -4°C° 0 mm 4 mps 767 mmHg 41%
    02:00 -4°C° 0 mm 4 mps 767 mmHg 40%
    03:00 -4°C° 0 mm 4 mps 767 mmHg 38%
    04:00 -4°C° 0 mm 4 mps 767 mmHg 36%
    05:00 -4°C° 0 mm 4 mps 767 mmHg 35%
    06:00 -4°C° 0 mm 4 mps 767 mmHg 32%
    07:00 -3°C° 0 mm 4 mps 768 mmHg 28%
    08:00 -3°C° 0 mm 4 mps 768 mmHg 25%
    09:00 0°C° 0 mm 3 mps 767 mmHg 22%
    10:00 +2°C° 0 mm 3 mps 767 mmHg 19%
    11:00 +4°C° 0 mm 3 mps 766 mmHg 16%
    12:00 +4°C° 0 mm 4 mps 766 mmHg 17%
    13:00 +4°C° 0 mm 4 mps 765 mmHg 19%
    14:00 +4°C° 0 mm 4 mps 765 mmHg 20%
    15:00 +3°C° 0 mm 4 mps 765 mmHg 25%
    16:00 0°C° 0 mm 4 mps 765 mmHg 30%
    17:00 -1°C° 0 mm 4 mps 765 mmHg 35%
    18:00 -1°C° 0 mm 4 mps 765 mmHg 36%
    19:00 -1°C° 0 mm 4 mps 765 mmHg 36%
    20:00 -1°C° 0 mm 4 mps 765 mmHg 37%
    21:00 -1°C° 0 mm 4 mps 764 mmHg 47%
    22:00 0°C° 0 mm 4 mps 764 mmHg 56%
    23:00 0°C° 0 mm 4 mps 763 mmHg 66%
    Show more